LUCH 5V

Last updated on Sat Aug 15 2026 00:02:48 GMT+0000 (Coordinated Universal Time)

1 39727U 14023A 26226.67209166 -.00000284 00000+0 00000+0 0 9996 2 39727 5.2741 69.1127 0002388 112.5305 118.1376 1.00271695 44942
UTC large
Height (km)
Speed (km/s)
/
Latitude / Longitude
Inclination (degrees)
Orbital Period (minutes)
Azimuth
Elevation
Range (km)
Doppler Factor

Next 0 passes for location: London (51.5072 / 0.1276)

No passes found over London.
LUCH 5V